Погода в Тучково

Россия / Московская область     55°36′03″N   36°28′18″E
темп.,
°C
ветер,
м/с
пор.,
м/с
влажн.,
%
обл.,
%
осадки,
мм/ч
давл.,
гПа
погр.,
м
17 апреля, сб
сб1700:00+9всв4129097 0.6 1019720
03:00+10в5119197 0.6 1020513
06:00+9всв41094100 0.2 1021495
09:00+9всв4989100 0.3 1021486
12:00+13всв586883 0.0 1020865
15:00+16всв6115762 0.0 10191541
18:00+14св7115851 0.2 10181115
21:00+11всв6136384 0.3 10201049
18 апреля, вс
вс1800:00+10всв51164100 0.0 1020781
03:00+8в41166100 0.2 1020882
06:00+5всв4986100 3.1 1021701
09:00+5всв41091100 6.6 1022472
12:00+4всв4995100 2.1 1023630
15:00+5всв4991100 2.1 1023718
18:00+5всв41092100 0.1 1023733
21:00+6в41092100 0.1 1024764
19 апреля, пн
пн1900:00+6в41185100 0.0 1024649
03:00+6всв51088100 0.0 1024886
06:00+6всв41088100 0.0 1024903
09:00+5всв4990100 0.1 1025944
12:00+5всв51090100 0.2 1025895
15:00+6в4990100 0.4 10251133
18:00+5в51193100 0.4 10241057
21:00+5в51393100 0.6 10241175
20 апреля, вт
вт2000:00+5в51293100 0.1 1023874
03:00+4в51379100 0.1 1022645
06:00+3в51383100 0.0 1021586
09:00+5в6137888 0.0 1019761
12:00+6всв61479100 0.0 1017863
15:00+7всв81678100 0.1 10131120
18:00+6в91989100 3.3 10091367
21:00+6в92191100 9.8 10051610
21 апреля, ср
ср2100:00+7вюв81792100 2.3 10021122
03:00+7вюв61494100 6.9 1001906
06:00+9юв71390100 1.4 9991343
09:00+8юв61286100 2.6 9991192
12:00+4ююз61290100 1.4 10041033
15:00+7ююз6148338 1.4 10061414
18:00+9ю6127436 0.2 10081417
21:00+6ю613835 0.2 1011813